This is the latest recevied weather packets stored in our database for station/object N2XP-3. If no packets are shown the sender has not sent any weather packets the latest 10 day(s).
| Time | Temp. | Humidity | Pressure | Rain* | Wind** | Luminosity | Snow |
|---|---|---|---|---|---|---|---|
| 1777489555 | 21.11° C | 48% | 1009.6 hPa | 0 mm | 1.79 m/s, 285° | - | - |
| 1777489255 | 21.11° C | 49% | 1009.8 hPa | 0 mm | 1.79 m/s, 271° | - | - |
| 1777488648 | 21.11° C | 50% | 1009.8 hPa | 0 mm | 1.34 m/s, 302° | - | - |
| 1777488347 | 21.11° C | 49% | 1010 hPa | 0 mm | 1.34 m/s, 228° | - | - |
| 1777487741 | 21.11° C | 49% | 1010.1 hPa | 0 mm | 1.34 m/s, 255° | - | - |
| 1777487441 | 21.11° C | 49% | 1010.3 hPa | 0 mm | 1.34 m/s, 176° | - | - |
| 1777487140 | 21.11° C | 48% | 1010.2 hPa | 0 mm | 0.45 m/s, 307° | - | - |
| 1777486233 | 21.67° C | 46% | 1010.3 hPa | 0 mm | 0 m/s | - | - |
| 1777485630 | 22.22° C | 45% | 1010.4 hPa | 0 mm | 1.79 m/s, 259° | - | - |
| 1777485331 | 22.22° C | 46% | 1010.5 hPa | 0 mm | 1.79 m/s, 229° | - | - |
| 1777484725 | 21.67° C | 46% | 1010.4 hPa | 0 mm | 1.34 m/s, 294° | - | - |
| 1777484425 | 22.22° C | 45% | 1010.4 hPa | 0 mm | 0.89 m/s, 142° | - | - |
| 1777484183 | 22.22° C | 45% | 1010.4 hPa | 0 mm | 0.45 m/s, 222° | - | - |
| 1777484121 | 22.22° C | 45% | 1010.4 hPa | 0 mm | 0.45 m/s, 222° | - | - |
| 1777483521 | 22.22° C | 46% | 1010.6 hPa | 0 mm | 2.24 m/s, 194° | - | - |
| 1777483219 | 22.22° C | 46% | 1010.7 hPa | 0 mm | 1.34 m/s, 197° | - | - |
| 1777482617 | 21.67° C | 44% | 1010.8 hPa | 0 mm | 0 m/s | - | - |
| 1777482311 | 21.11° C | 45% | 1011 hPa | 0 mm | 0.45 m/s, 125° | - | - |
| 1777482011 | 20.56° C | 46% | 1011 hPa | 0 mm | 0 m/s | - | - |
| 1777481712 | 20.56° C | 47% | 1011.1 hPa | 0 mm | 0 m/s | - | - |
| 1777481409 | 20° C | 49% | 1011.2 hPa | 0 mm | 0.45 m/s, 204° | - | - |
| 1777481109 | 20° C | 49% | 1011.3 hPa | 0 mm | 0.45 m/s, 338° | - | - |
| 1777480807 | 20° C | 49% | 1011.3 hPa | 0 mm | 1.34 m/s, 305° | - | - |
| 1777480204 | 19.44° C | 49% | 1011.4 hPa | 0 mm | 1.34 m/s, 312° | - | - |
| 1777479900 | 19.44° C | 48% | 1011.5 hPa | 0 mm | 1.79 m/s, 217° | - | - |
* Rain latest hour (hover to see other rain measurements)
** Current wind speed in m/s (hover to see current wind gust speed)